Location: Meanaryar
(48.4161°N, 4.7315°W)
Time: 00:33:03
(UTC+00:00)

Cosmos 1464 Rocket - Pass Details

Date: 18 September 2020
Orbit: 953 x 1000 km, 82.9° (Epoch: 31 October)

Event Time Altitude Azimuth Distance (km) Brightness Sun altitude
Rises 19:42:13 0° 180° (S) 3,616 6.8 -13.5°
Reaches altitude 10° 19:44:42 10° 178° (S) 2,675 6.1 -13.9°
Maximum altitude 19:50:47 73° 96° (E) 1,004 3.9 -14.8°
Drops below altitude 10° 19:56:57 10° 13° (NNE) 2,710 6.4 -15.8°
Sets 19:59:28 0° 11° (N) 3,667 7.1 -16.2°
